TimeCDT,TemperatureF,Dew PointF,Humidity,Sea Level PressureIn,VisibilityMPH,Wind Direction,Wind SpeedMPH,Gust SpeedMPH,PrecipitationIn,Events,Conditions,WindDirDegrees,DateUTC
12:15 AM,62.8,52.9,70,30.13,10.0,South,4.6,-,N/A,,Clear,170,2013-09-06 05:15:00
12:35 AM,64.2,54.0,69,30.13,10.0,SE,3.5,-,N/A,,Clear,140,2013-09-06 05:35:00
12:55 AM,64.2,54.5,71,30.13,10.0,SSE,3.5,-,N/A,,Clear,160,2013-09-06 05:55:00
1:15 AM,64.6,55.6,73,30.12,10.0,SE,4.6,-,N/A,,Clear,140,2013-09-06 06:15:00
1:35 AM,64.6,56.3,74,30.12,10.0,SSE,4.6,-,N/A,,Clear,160,2013-09-06 06:35:00
1:55 AM,64.4,56.8,76,30.12,10.0,SSE,6.9,-,N/A,,Clear,160,2013-09-06 06:55:00
2:15 AM,64.9,58.1,78,30.12,10.0,SSE,5.8,-,N/A,,Clear,150,2013-09-06 07:15:00
2:35 AM,64.4,58.5,81,30.12,10.0,SSE,4.6,-,N/A,,Clear,160,2013-09-06 07:35:00
2:55 AM,63.7,59.2,85,30.11,10.0,South,3.5,-,N/A,,Clear,170,2013-09-06 07:55:00
3:15 AM,65.3,61.3,87,30.11,10.0,South,6.9,-,N/A,,Clear,190,2013-09-06 08:15:00
3:35 AM,67.5,62.4,84,30.10,10.0,South,9.2,-,N/A,,Clear,190,2013-09-06 08:35:00
3:55 AM,68.0,62.4,82,30.09,10.0,South,8.1,-,N/A,,Clear,190,2013-09-06 08:55:00
4:15 AM,67.6,62.8,84,30.10,10.0,South,4.6,-,N/A,,Clear,180,2013-09-06 09:15:00
4:35 AM,67.6,63.5,87,30.10,10.0,South,6.9,-,N/A,,Clear,190,2013-09-06 09:35:00
4:55 AM,67.3,63.9,89,30.09,10.0,South,6.9,-,N/A,,Clear,170,2013-09-06 09:55:00
5:15 AM,67.1,63.9,89,30.09,10.0,South,6.9,-,N/A,,Clear,170,2013-09-06 10:15:00
5:35 AM,66.9,64.2,91,30.08,10.0,South,6.9,-,N/A,,Clear,180,2013-09-06 10:35:00
5:55 AM,67.1,64.4,91,30.08,10.0,South,5.8,-,N/A,,Clear,180,2013-09-06 10:55:00
6:15 AM,67.5,64.6,90,30.09,10.0,South,5.8,-,N/A,,Clear,190,2013-09-06 11:15:00
6:35 AM,67.6,64.6,90,30.08,10.0,South,5.8,-,N/A,,Clear,190,2013-09-06 11:35:00
6:55 AM,67.5,64.6,90,30.08,10.0,South,4.6,-,N/A,,Scattered Clouds,180,2013-09-06 11:55:00
7:15 AM,67.5,64.8,91,30.07,10.0,South,8.1,-,N/A,,Scattered Clouds,180,2013-09-06 12:15:00
7:35 AM,68.4,65.1,89,30.07,10.0,South,5.8,-,N/A,,Clear,180,2013-09-06 12:35:00
7:55 AM,69.1,65.1,87,30.06,10.0,South,5.8,-,N/A,,Clear,180,2013-09-06 12:55:00
8:15 AM,71.1,65.1,81,30.06,10.0,South,5.8,-,N/A,,Scattered Clouds,190,2013-09-06 13:15:00
8:35 AM,72.0,64.6,77,30.06,10.0,South,6.9,-,N/A,,Mostly Cloudy,190,2013-09-06 13:35:00
8:55 AM,72.0,64.8,78,30.05,10.0,South,6.9,-,N/A,,Scattered Clouds,170,2013-09-06 13:55:00
9:15 AM,73.4,64.9,75,30.05,10.0,SSE,6.9,-,N/A,,Clear,160,2013-09-06 14:15:00
9:35 AM,75.7,65.1,69,30.05,10.0,SSE,8.1,-,N/A,,Clear,150,2013-09-06 14:35:00
9:55 AM,78.8,64.6,62,30.03,10.0,South,8.1,-,N/A,,Scattered Clouds,180,2013-09-06 14:55:00
10:15 AM,80.2,64.2,58,30.03,10.0,SW,10.4,-,N/A,,Mostly Cloudy,220,2013-09-06 15:15:00
10:35 AM,81.5,63.7,55,30.03,10.0,SW,10.4,18.4,N/A,,Overcast,230,2013-09-06 15:35:00
10:55 AM,80.1,64.0,58,30.03,10.0,SSW,6.9,-,N/A,,Overcast,210,2013-09-06 15:55:00
11:15 AM,80.1,64.0,58,30.03,10.0,SSW,8.1,-,N/A,,Overcast,210,2013-09-06 16:15:00
11:35 AM,82.8,64.4,54,30.02,10.0,SSW,13.8,17.3,N/A,,Mostly Cloudy,200,2013-09-06 16:35:00
11:55 AM,83.8,64.2,51,30.00,10.0,SSW,11.5,-,N/A,,Scattered Clouds,200,2013-09-06 16:55:00
12:15 PM,86.4,61.3,43,30.00,10.0,SW,16.1,25.3,N/A,,Mostly Cloudy,230,2013-09-06 17:15:00
12:35 PM,84.6,61.2,45,29.98,10.0,SW,12.7,20.7,N/A,,Overcast,220,2013-09-06 17:35:00
12:55 PM,86.5,60.1,41,29.97,10.0,SW,13.8,21.9,N/A,,Scattered Clouds,220,2013-09-06 17:55:00
1:15 PM,86.4,60.4,42,29.97,10.0,SSW,17.3,21.9,N/A,,Scattered Clouds,210,2013-09-06 18:15:00
1:35 PM,86.5,60.3,41,29.96,10.0,SSW,16.1,20.7,N/A,,Scattered Clouds,210,2013-09-06 18:35:00
1:55 PM,87.4,58.8,38,29.96,10.0,SSW,13.8,18.4,N/A,,Scattered Clouds,200,2013-09-06 18:55:00
2:15 PM,87.8,56.7,35,29.94,10.0,WSW,16.1,-,N/A,,Scattered Clouds,240,2013-09-06 19:15:00
2:35 PM,89.4,56.5,33,29.94,10.0,SW,12.7,20.7,N/A,,Scattered Clouds,220,2013-09-06 19:35:00
2:55 PM,87.8,56.5,34,29.93,10.0,SW,12.7,-,N/A,,Mostly Cloudy,220,2013-09-06 19:55:00
3:15 PM,89.8,55.8,31,29.93,10.0,SW,11.5,19.6,N/A,,Mostly Cloudy,230,2013-09-06 20:15:00
3:35 PM,89.4,56.3,32,29.93,10.0,SW,13.8,-,N/A,,Mostly Cloudy,220,2013-09-06 20:35:00
3:55 PM,88.0,56.7,34,29.92,10.0,SW,10.4,-,N/A,,Mostly Cloudy,220,2013-09-06 20:55:00
4:15 PM,88.0,56.5,34,29.91,10.0,SW,8.1,-,N/A,,Overcast,230,2013-09-06 21:15:00
4:35 PM,88.7,55.6,32,-9999,10.0,SW,10.4,17.3,N/A,,Overcast,220,2013-09-06 21:35:00
4:55 PM,89.4,55.6,32,29.90,10.0,WSW,11.5,19.6,N/A,,Mostly Cloudy,240,2013-09-06 21:55:00
5:15 PM,88.9,56.3,33,29.90,10.0,SSW,11.5,17.3,N/A,,Overcast,210,2013-09-06 22:15:00
5:35 PM,88.9,56.3,33,29.90,10.0,SW,11.5,16.1,N/A,,Mostly Cloudy,220,2013-09-06 22:35:00
5:55 PM,88.2,56.7,34,29.90,10.0,SW,9.2,-,N/A,,Mostly Cloudy,230,2013-09-06 22:55:00
6:15 PM,86.4,57.2,37,29.90,10.0,SW,8.1,-,N/A,,Mostly Cloudy,220,2013-09-06 23:15:00
6:35 PM,86.2,57.6,38,29.90,10.0,SW,6.9,-,N/A,,Mostly Cloudy,220,2013-09-06 23:35:00
6:55 PM,84.7,58.5,41,29.90,10.0,SSW,4.6,-,N/A,,Scattered Clouds,210,2013-09-06 23:55:00
7:15 PM,82.9,59.4,45,29.89,10.0,SSW,3.5,-,N/A,,Mostly Cloudy,200,2013-09-07 00:15:00
7:35 PM,81.5,60.1,48,29.89,10.0,South,4.6,-,N/A,,Scattered Clouds,180,2013-09-07 00:35:00
7:55 PM,79.9,60.8,52,29.89,10.0,South,4.6,-,N/A,,Scattered Clouds,170,2013-09-07 00:55:00
8:15 PM,79.3,61.2,54,29.89,10.0,South,5.8,-,N/A,,Clear,170,2013-09-07 01:15:00
8:35 PM,79.2,61.7,55,29.89,10.0,South,5.8,-,N/A,,Clear,180,2013-09-07 01:35:00
8:55 PM,78.8,61.9,56,29.89,10.0,South,6.9,-,N/A,,Clear,170,2013-09-07 01:55:00
9:15 PM,77.5,62.1,59,29.90,10.0,South,4.6,-,N/A,,Clear,170,2013-09-07 02:15:00
9:35 PM,78.1,62.2,58,29.90,10.0,SSE,4.6,-,N/A,,Mostly Cloudy,160,2013-09-07 02:35:00
9:55 PM,77.5,62.6,60,29.90,10.0,South,4.6,-,N/A,,Overcast,170,2013-09-07 02:55:00
10:15 PM,77.2,62.8,61,29.90,10.0,SSE,5.8,-,N/A,,Scattered Clouds,160,2013-09-07 03:15:00
10:35 PM,75.6,62.8,64,29.90,10.0,South,5.8,-,N/A,,Scattered Clouds,170,2013-09-07 03:35:00
10:55 PM,75.6,63.0,65,29.89,10.0,SSE,5.8,-,N/A,,Scattered Clouds,160,2013-09-07 03:55:00
11:15 PM,76.1,63.1,64,29.89,10.0,SSE,5.8,-,N/A,,Mostly Cloudy,160,2013-09-07 04:15:00
11:35 PM,76.3,63.3,64,29.89,10.0,South,5.8,-,N/A,,Overcast,170,2013-09-07 04:35:00
11:55 PM,76.8,63.5,63,29.89,10.0,SSE,5.8,-,N/A,,Overcast,160,2013-09-07 04:55:00